Regional Weather Roundup
Issued by NWS

Home | Current Version | Previous Version | Text Only | Print | Product List | Glossary Off
Versions: 1 2 3 4 5 6 7 8 9 10 11 12 13 14 15 16 17 18 19 20 21 22 23 24 25 26 27 28 29 30 31 32 33 34 35 36 37 38 39 40 41 42 43 44 45 46 47 48 49 50

000
ASUS43 KLOT 221008
RWRIL

ILLINOIS REGIONAL WEATHER ROUNDUP
NATIONAL WEATHER SERVICE CHICAGO/ROMEOVILLE IL
500 AM CDT TUE MAY 22 2018

NOTE: "FAIR" INDICATES FEW OR NO CLOUDS BELOW 12,000 FEET WITH NO
SIGNIFICANT WEATHER AND/OR OBSTRUCTIONS TO VISIBILITY.

* THESE STATIONS ARE NOT UNDER NWS QUALITY CONTROL. THEY ALSO MAY NOT
  REPORT WEATHER SUCH AS PRECIPITATION OR FOG.

ILZ001-002-007-009-015-016-024-221100-
NORTHWEST ILLINOIS

CITY           SKY/WX    TMP DP  RH WIND       PRES   REMARKS
MOLINE         FAIR      55  54  96 CALM      29.99R FOG
SAVANNA*       CLOUDY    62  61  97 W6        30.00R FOG
$$

ILZ003-004-008-010-011-017-018-221100-
NORTH CENTRAL ILLINOIS

CITY           SKY/WX    TMP DP  RH WIND       PRES   REMARKS
ROCKFORD       LGT RAIN  57  57 100 NE3       30.00R VSB 1/4
FREEPORT*      FOG       57  57 100 N3        30.01S VSB 1
ROCHELLE*      CLOUDY    58  58 100 CALM      30.00R FOG
DE KALB*       FOG       57  57 100 CALM      30.00R VSB 1/4
PERU*          CLOUDY    64  63  98 W5        30.00S FOG
$$

ILZ005-006-012>014-019>023-221100-
NORTHEAST ILLINOIS

CITY           SKY/WX    TMP DP  RH WIND       PRES   REMARKS
CHICAGO-OHARE  CLOUDY    55  53  93 N6        29.98R FOG
CHICAGO-MIDWAY CLOUDY    56  56 100 N5        29.98R FOG
AURORA         FOG       59  59 100 N3        29.98R VSB 1/4
LANSING*       FOG       55  55 100 N5        29.99R VSB 1
JOLIET*        CLOUDY    63  63 100 N5        29.98R FOG
WAUKEGAN       FOG       50  50 100 CALM      29.99R VSB 1/2
DUPAGE AIRPORT FOG       57  57 100 N3        29.98R VSB 1/4
KANKAKEE*      CLOUDY    65  64  97 W7        29.98R
WHEELING       FOG       54  54 100 N3        30.00R VSB 3/4
MORRIS*        FOG       62  61  98 CALM      29.97S VSB 1/2
ROMEOVILLE*    CLOUDY    59  59 100 N3        29.99R FOG
NORTHERLY ISL    N/A     50  49  96 N3          N/A
$$

LMZ740>746-221100-
SOUTHERN LAKE MICHIGAN

STATION/POSITION SKY/WX   TEMP    WIND        PRES    VSBY  WAVE
                          AIR SEA DIR/SP/G                  HT/PER
                          (F)     (DEG/KT/KT) (MB)    (MI)  (FT/S)
WILMETTE HARBOR            45 47  360/ 10/ 12   N/A           1/ 3
HARRISON CRIB              49     340/ 10/ 11   N/A
BURNHAM HARBOR             51      20/  2/  7   N/A
CALUMET HARBOR             51     330/  3/  6 1015.0R
BURNS HARBOR               50        CALM     1015.6F
MICHIGAN CITY 6N           47 53  350/  2/  4   N/A           1
ST. JOSEPH                 53 53  330/  6/  8 1015.4          1
$$

ILZ025>027-034>036-040-047-049-050-058-095>099-221100-
WEST-CENTRAL ILLINOIS

CITY           SKY/WX    TMP DP  RH WIND       PRES   REMARKS
QUINCY         CLOUDY    61  59  93 N5        30.00R
GALESBURG*     FOG       56  56  98 CALM      30.01S VSB<1/4
MACOMB*          N/A     58  58 100 CALM      30.03S FOG
JACKSONVILLE*  PTCLDY    62  61  96 CALM      29.99R
PITTSFIELD*    PTCLDY    63  62  97 W5        30.01R
$$

ILZ028>032-037-038-041>044-048-051>054-059>061-221100-
CENTRAL ILLINOIS

CITY           SKY/WX    TMP DP  RH WIND       PRES   REMARKS
PONTIAC        FOG       65  65  98 NW8       29.98F VSB 1/2
BLOOMINGTON    FAIR      65  63  93 NW5       30.00R
DECATUR        MOCLDY    67  66  97 W3        29.98S
PEORIA         FOG       64  63  96 N5        29.99F VSB 3/4
LACON*         CLOUDY    63  63 100 CALM      29.99S FOG
LINCOLN*       FAIR      67  67 100 CALM      29.98F FOG
SPRINGFIELD    FOG       63  63 100 CALM      29.98S VSB 1/4
TAYLORVILLE      N/A     64  64 100 SW5       29.98S FOG
$$

ILZ033-039-045-046-055>057-062-063-221100-
EAST-CENTRAL ILLINOIS

CITY           SKY/WX    TMP DP  RH WIND       PRES   REMARKS
CHAMPAIGN      FAIR      64  64 100 NW3       29.98S FOG
DANVILLE*      CLOUDY    64  64 100 CALM      29.96F FOG
RANTOUL*       MOCLDY    67  67  99 W3        29.98F FOG
MATTOON        FAIR      67  66  97 S5        29.98S FOG
PARIS*         FAIR      64  64 100 SW5       30.00S FOG
$$

ILZ079-100>102-221100-
SOUTHWEST ILLINOIS

CITY           SKY/WX    TMP DP  RH WIND       PRES   REMARKS
ALTON          CLEAR     64  64 100 W5        30.00R
BELLEVILLE     CLEAR     67  66  99 NW3       29.98R
CAHOKIA*       CLOUDY    69  67  93 W3        29.99R
SPARTA*        CLEAR     67  67 100 CALM      30.01R
$$

ILZ064>066-069>071-074>076-080>082-084>086-088>090-092>094-221100-
SOUTH-CENTRAL ILLINOIS

CITY           SKY/WX    TMP DP  RH WIND       PRES   REMARKS
CARBONDALE     FOG       64  64 100 CALM      29.99S VSB 1/2
CAIRO*         FAIR      67  67 100 CALM      30.00S FOG
EFFINGHAM*     FOG       64  64 100 CALM      30.00S VSB 1/2
MARION         FOG      N/A N/A N/A CALM      30.01R VSB 1/4
CENTRALIA*     CLEAR     67  67 100 CALM      29.99S FOG
SALEM*         FAIR      65  64  94 S3        29.99S FOG
$$

ILZ067-068-072-073-078-083-087-091-221100-
SOUTHEAST ILLINOIS

CITY           SKY/WX    TMP DP  RH WIND       PRES   REMARKS
LAWRENCEVILLE  MOCLDY    68  67  96 CALM      30.00S FOG
FLORA*         FOG       63  62  97 CALM      30.00S VSB 1/2
FAIRFIELD*     FAIR      64  64 100 CALM      29.99S FOG
HARRISBURG*    FOG       65  65 100 CALM      30.00S VSB 1/4
ROBINSON*      CLOUDY    65  65 100 CALM      30.01S FOG
CARMI*         FOG       65  65 100 CALM      29.99S VSB 1/4
$$

ABBREVIATIONS USED IN REMARKS
   TC - TEMPERATURE IN CELSIUS
  WCI - WIND CHILL INDEX
   HX - HEAT INDEX
  VSB - VISIBILITY
$$





USA.gov is the U.S. government's official web portal to all federal, state and local government web resources and services.